EA3GYL La Torregassa ES current weather conditions

sailwx.info

Air temperature 19.4° C
Dewpoint 18.3° C

Last reported at 2017-Sep-23 21:32 UTC.
Time now 2017-Sep-24 03:27 UTC

Location: N 41°17' E 001°31'.
View on Google Maps.

See reports from other nearby stations

  
Tides and Currents Weather Stations Pressure Air Temp Water Temp Dewpoint Dewpoint Depression Visibility Wind Speed Wind Dir Waves Ship Positions
date/time (UTC)wind fromknots sea level pressurealtimeterstation pressurevisibilityair tempwater tempwave heightnotes
2017-Sep-23 21:32 19.4
2017-Sep-23 21:23 19.4
2017-Sep-23 21:14 280 0 gusting 1 19.4
2017-Sep-23 21:05 280 19.4
2017-Sep-23 20:56 19.4
2017-Sep-23 20:47 280 0 gusting 0 19.4
2017-Sep-23 20:38 280 0 gusting 1 19.4
2017-Sep-23 20:29 278 0 gusting 2 19.4
2017-Sep-23 20:20 276 0 gusting 1 19.4
2017-Sep-23 20:11 276 0 gusting 1 20.0
2017-Sep-23 20:02 279 0 gusting 2 20.0
2017-Sep-23 19:53 238 0 gusting 1 20.0
2017-Sep-23 19:44 20.0
2017-Sep-23 19:35 20.0
2017-Sep-23 19:26 20.0
2017-Sep-23 19:17 20.0
2017-Sep-23 19:08 20.0
2017-Sep-23 18:59 20.0
2017-Sep-23 18:30 233 0 gusting 2 20.6
2017-Sep-23 18:21 231 0 gusting 2 20.6
2017-Sep-23 18:12 228 0 gusting 3 21.1
2017-Sep-23 18:03 235 1 gusting 3 21.1
2017-Sep-23 17:54 230 1 gusting 4 21.1
2017-Sep-23 17:45 221 2 gusting 5 21.7
2017-Sep-23 17:36 222 2 gusting 6 21.7
2017-Sep-23 17:27 228 2 gusting 6 22.2
2017-Sep-23 17:18 209 2 gusting 6 22.2
2017-Sep-23 17:09 209 3 gusting 8 22.8
2017-Sep-23 17:00 178 3 gusting 7 22.8
2017-Sep-23 16:51 182 4 gusting 8 22.8
2017-Sep-23 16:42 179 3 gusting 7 23.3
2017-Sep-23 16:33 189 2 gusting 7 23.3
2017-Sep-23 16:24 186 2 gusting 6 23.3
2017-Sep-23 16:15 181 3 gusting 8 23.3
2017-Sep-23 16:06 209 3 gusting 8 23.9
2017-Sep-23 15:57 195 4 gusting 9 23.9
2017-Sep-23 15:33 206 5 gusting 9 24.4
2017-Sep-23 15:24 200 5 gusting 11 24.4
2017-Sep-23 15:15 165 5 gusting 8 24.4
2017-Sep-23 15:06 171 5 gusting 9 24.4
2017-Sep-23 14:57 179 4 gusting 9 24.4
2017-Sep-23 14:48 171 4 gusting 8 25.0
2017-Sep-23 14:39 194 5 gusting 10 24.4
2017-Sep-23 14:30 190 5 gusting 10 25.0
2017-Sep-23 14:21 167 5 gusting 10 24.4
2017-Sep-23 14:12 171 4 gusting 8 25.0
2017-Sep-23 14:03 169 5 gusting 9 24.4
2017-Sep-23 13:54 183 4 gusting 8 24.4
2017-Sep-23 13:45 184 6 gusting 10 24.4
2017-Sep-23 13:36 161 5 gusting 10 24.4
2017-Sep-23 13:27 169 5 gusting 11 24.4
2017-Sep-23 13:18 171 6 gusting 12 24.4
2017-Sep-23 13:09 134 6 gusting 10 23.9
2017-Sep-23 13:00 145 6 gusting 12 23.9
2017-Sep-23 12:51 164 5 gusting 11 24.4
2017-Sep-23 12:42 160 6 gusting 10 24.4
2017-Sep-23 12:33 167 5 gusting 10 24.4
2017-Sep-23 12:24 164 5 gusting 9 23.9
2017-Sep-23 12:15 141 5 gusting 9 23.3
2017-Sep-23 12:06 146 4 gusting 11 23.3
2017-Sep-23 11:57 156 3 gusting 8 23.9
2017-Sep-23 11:48 162 4 gusting 7 23.9
2017-Sep-23 11:39 142 4 gusting 8 23.9
2017-Sep-23 11:30 137 4 gusting 8 23.9
2017-Sep-23 11:21 139 3 gusting 9 24.4
2017-Sep-23 11:12 151 3 gusting 6 24.4
2017-Sep-23 11:03 161 3 gusting 7 24.4
2017-Sep-23 10:54 171 4 gusting 10 24.4
2017-Sep-23 10:45 140 3 gusting 7 24.4
2017-Sep-23 10:36 194 1 gusting 6 24.4
2017-Sep-23 10:27 191 1 gusting 5 24.4
2017-Sep-23 10:18 171 2 gusting 5 24.4
2017-Sep-23 10:09 153 1 gusting 5 23.9
2017-Sep-23 10:00 211 1 gusting 6 23.9
2017-Sep-23 09:51 197 1 gusting 6 23.3
2017-Sep-23 09:42 178 0 gusting 4 23.3
2017-Sep-23 09:33 172 0 gusting 4 22.8
2017-Sep-23 09:24 150 0 gusting 4 22.2
2017-Sep-23 09:15 125 0 gusting 3 21.7
2017-Sep-23 09:06 21.7
2017-Sep-23 08:57 20.6
2017-Sep-23 08:48 20.0
2017-Sep-23 08:39 19.4
2017-Sep-23 08:30 19.4
2017-Sep-23 08:21 19.4
2017-Sep-23 08:12 130 0 gusting 0 18.9
2017-Sep-23 08:03 133 0 gusting 2 18.9
2017-Sep-23 07:54 19.4
2017-Sep-23 07:45 19.4
2017-Sep-23 07:36 18.9
2017-Sep-23 07:27 18.3
2017-Sep-23 07:18 18.3
2017-Sep-23 07:09 18.3
2017-Sep-23 07:00 18.3
2017-Sep-23 06:51 17.8
2017-Sep-22 22:32 18.3
2017-Sep-22 22:23 18.3
2017-Sep-22 22:14 18.3
2017-Sep-22 22:05 18.3
2017-Sep-22 21:56 18.3
2017-Sep-22 21:47 18.9
2017-Sep-22 21:38 18.9
2017-Sep-22 21:29 19.4
2017-Sep-22 21:20 19.4
2017-Sep-22 21:11 19.4
2017-Sep-22 21:02 19.4
2017-Sep-22 20:53 19.4
2017-Sep-22 20:44 19.4
2017-Sep-22 20:35 19.4
2017-Sep-22 20:26 20.0
2017-Sep-22 20:17 20.0
2017-Sep-22 20:08 20.0
2017-Sep-22 19:59 20.0
2017-Sep-22 19:50 19.4
2017-Sep-22 19:41 19.4
2017-Sep-22 19:32 19.4
2017-Sep-22 19:23 19.4
2017-Sep-22 19:14 19.4
2017-Sep-22 19:05 19.4
2017-Sep-22 18:56 20.0
2017-Sep-22 18:47 20.0
2017-Sep-22 18:38 20.0
2017-Sep-22 18:29 035 20.0
2017-Sep-22 18:20 035 0 gusting 2 20.0
2017-Sep-22 18:11 20.0
2017-Sep-22 18:02 20.0
2017-Sep-22 17:53 20.6
2017-Sep-22 17:44 20.6
2017-Sep-22 17:35 20.6
2017-Sep-22 17:26 20.6
2017-Sep-22 17:17 20.6
2017-Sep-22 17:08 20.6
2017-Sep-22 16:59 022 0 gusting 1 20.6
2017-Sep-22 16:50 065 0 gusting 2 20.6
2017-Sep-22 16:41 069 0 gusting 2 21.1
2017-Sep-22 16:32 066 0 gusting 3 21.1
2017-Sep-22 16:23 081 0 gusting 3 21.1
2017-Sep-22 16:14 093 0 gusting 3 21.7
2017-Sep-22 16:05 072 1 gusting 3 21.7
2017-Sep-22 15:56 072 1 gusting 4 21.7
2017-Sep-22 15:47 065 1 gusting 4 21.7
2017-Sep-22 15:38 074 0 gusting 5 21.7
2017-Sep-22 15:29 095 1 gusting 4 21.7
2017-Sep-22 15:20 084 2 gusting 5 21.7
2017-Sep-22 15:11 072 2 gusting 6 21.7
2017-Sep-22 15:02 079 3 gusting 7 22.2
2017-Sep-22 14:53 089 3 gusting 6 22.2
2017-Sep-22 14:44 096 2 gusting 6 22.8
2017-Sep-22 14:35 097 0 gusting 6 23.3
2017-Sep-22 14:26 001 23.3
2017-Sep-22 14:17 309 2 gusting 3 23.3
2017-Sep-22 14:08 331 4 gusting 7 22.8
2017-Sep-22 13:59 332 3 gusting 9 21.7
2017-Sep-22 13:50 009 4 gusting 10 21.7
2017-Sep-22 13:41 348 5 gusting 11 21.1
2017-Sep-22 13:32 341 3 gusting 10 21.1
2017-Sep-22 13:23 349 1 gusting 6 21.1
2017-Sep-22 13:14 337 1 gusting 3 21.1
2017-Sep-22 13:05 316 1 gusting 3 20.6
2017-Sep-22 12:56 319 1 gusting 4 20.6
2017-Sep-22 12:47 298 0 gusting 5 21.1
2017-Sep-22 12:38 340 0 gusting 3 21.7
2017-Sep-22 12:29 312 1 gusting 3 21.7
2017-Sep-22 12:20 253 1 gusting 5 21.7
2017-Sep-22 12:11 236 1 gusting 4 21.7
2017-Sep-22 12:02 223 2 gusting 5 22.2
2017-Sep-22 11:53 177 2 gusting 5 22.2
2017-Sep-22 11:44 187 3 gusting 6 22.2
2017-Sep-22 11:35 201 3 gusting 7 22.2
2017-Sep-22 11:26 186 3 gusting 7 22.8
2017-Sep-22 11:17 170 4 gusting 9 23.3
2017-Sep-22 11:08 167 3 gusting 10 23.9
2017-Sep-22 10:59 153 2 gusting 6 24.4
2017-Sep-22 10:50 146 1 gusting 5 24.4
2017-Sep-22 10:41 183 1 gusting 6 24.4
2017-Sep-22 10:32 159 0 gusting 4 24.4
2017-Sep-22 10:23 214 1 gusting 3 23.9
2017-Sep-22 10:14 216 0 gusting 3 23.9
2017-Sep-22 10:05 120 1 gusting 3 23.9
2017-Sep-22 09:56 169 1 gusting 4 23.3
2017-Sep-22 09:47 137 1 gusting 6 23.3
2017-Sep-22 09:38 091 1 gusting 5 23.3
2017-Sep-22 09:29 124 0 gusting 3 22.8
2017-Sep-22 09:20 155 0 gusting 3 22.8
2017-Sep-22 09:11 099 0 gusting 3 22.2
2017-Sep-22 09:02 109 0 gusting 3 22.2
2017-Sep-22 08:53 107 1 gusting 4 21.7
2017-Sep-22 08:44 091 0 gusting 3 21.7
2017-Sep-22 08:35 069 1 gusting 4 21.7
2017-Sep-22 08:26 091 1 gusting 4 21.7
2017-Sep-22 08:17 086 1 gusting 5 21.7
2017-Sep-22 08:08 068 1 gusting 4 21.1
2017-Sep-22 07:59 073 1 gusting 4 21.1
2017-Sep-22 07:50 087 0 gusting 4 20.6
2017-Sep-22 07:41 20.0
2017-Sep-22 07:32 19.4
2017-Sep-22 07:23 19.4
2017-Sep-22 07:14 18.9
2017-Sep-22 07:05 18.3
2017-Sep-22 06:56 18.3